[[{"header":{"parameterUnit":"m.s-1","parameterCategory":1,"la1":30.2991,"la2":30.254,"lo1":-89.0895,"lo2":-89.0444,"dy":0.0017,"dx":0.0017,"nx":28,"ny":28,"refTime":"2025-07-13T21:00:00:Z","depth":0,"parameterNumber":2,"parameterNumberName":"U-component_of_WINDS"},"data":[0,0,0,0,0,0,0,0,0,0,0,0,0,0,0,0,0,0,0,0,0,0,0,0,0,0,0,0,0,0,0,0,0,0,0,0,0,0,0,0,0,0,0,0,0,0,0,0,0,0,0,0,0,0,0,0,0,0,4.2077,4.2078,0,4.2196,4.2197,4.2198,4.2146,4.2143,4.214,4.2137,4.226,4.2266,4.2272,0,0,0,0,0,0,0,0,0,0,0,0,0,4.1804,4.1809,4.2077,4.2078,4.208,4.2195,4.2197,4.2199,4.2146,4.2143,4.2139,4.2136,4.2258,4.2265,4.2272,0,0,0,0,0,0,0,0,0,0,0,0,0,4.1923,4.1811,4.2076,4.2067,4.2068,4.2195,4.2197,4.2199,4.2147,4.2143,4.2138,4.2134,4.2256,4.2264,4.2273,4.2417,0,0,4.2301,4.2305,0,0,0,0,0,0,0,0,4.1916,4.1933,4.2067,4.2068,4.2069,4.2151,4.2146,4.2272,4.2148,4.2117,4.2137,4.2132,4.2228,4.2239,4.2271,4.2423,4.2428,4.2302,4.2307,4.2311,4.2314,0,0,0,0,0,0,0,4.1908,4.1927,4.2124,4.2069,4.207,4.2057,4.2069,4.217,4.2195,4.2119,4.2116,4.213,4.2227,4.2262,4.2273,4.243,4.2301,4.2309,4.2315,4.2319,4.2703,4.2708,0,0,0,0,0,0,4.19,4.1921,4.212,4.2127,4.198,4.2066,4.2079,4.2129,4.2194,4.22,4.2134,4.2128,4.2249,4.2263,4.2277,4.2447,4.2311,4.2319,4.2325,4.2698,4.2704,4.2709,0,0,0,0,0,0,4.1894,4.1918,4.2115,4.2023,4.2047,4.2075,4.2132,4.2134,4.2169,4.2205,4.221,4.2165,4.2246,4.2264,4.2382,4.245,4.2323,4.2332,4.2693,4.27,4.2707,4.2789,0,0,0,0,0,0,4.1887,4.1916,4.1971,4.2025,4.2052,4.2218,4.2136,4.2139,4.2184,4.2177,4.2235,4.2241,4.2244,4.2369,4.2391,4.2461,4.2339,4.2687,4.2696,4.2704,4.278,4.2798,4.2814,0,0,0,0,0,4.1877,4.199,4.1974,4.1998,4.2121,4.2222,4.2238,4.2238,4.219,4.2245,4.2268,4.2239,4.244,4.2381,4.2406,4.2479,4.2682,4.2693,4.2704,4.2773,4.2795,4.2813,0,0,0,0,0,0,4.1945,4.1997,4.198,4.2114,4.2164,4.2213,4.2282,4.2262,4.2327,4.2317,4.2316,4.233,4.245,4.2477,4.241,4.262,4.2554,4.257,4.2598,4.2619,4.2635,4.2625,4.2346,0,0,0,0,0,4.1975,4.2052,4.2094,4.2209,4.2234,4.2254,4.2298,4.2294,4.2346,4.2367,4.2399,4.245,4.2525,4.2574,4.2645,4.2785,4.2796,4.2848,4.2864,4.2878,4.2891,4.2964,4.2987,4.2745,4.2745,4.2745,0,0,4.2039,4.2077,4.2126,4.2223,4.2261,4.234,4.2272,4.236,4.2418,4.238,4.2492,4.2518,4.2575,4.2704,4.2762,4.273,4.296,4.2892,4.2902,4.2908,4.2978,4.3001,4.3021,4.2752,4.2751,4.275,0,0,4.2194,4.2233,4.233,4.237,4.2428,4.2441,4.2464,4.2517,4.2532,4.2644,4.2616,4.2687,4.2816,4.2857,4.2894,4.3066,4.304,4.3089,4.3175,4.3246,4.3265,4.3282,4.334,4.3361,4.3103,4.3103,4.3103,0,4.2266,4.2384,4.2383,4.2472,4.2515,4.2484,4.2583,4.2621,4.27,4.273,4.2693,4.2853,4.289,4.3026,4.3068,4.3101,4.3126,4.3081,4.3263,4.328,4.3295,4.335,4.3373,4.3108,4.3108,4.3107,4.3107,0,4.2468,4.255,4.2623,4.2698,4.2749,4.2843,4.2856,4.2908,4.29,4.2916,4.303,4.3073,4.3151,4.3184,4.3178,4.3319,4.3297,4.3262,4.3194,4.3324,4.3375,4.3397,4.3116,4.3114,4.3112,4.3111,0,0,4.2667,4.2741,4.2767,4.28,4.2862,4.2926,4.3018,4.3093,4.3137,4.3193,4.3268,4.3378,4.3345,4.3388,4.3387,4.345,4.3579,4.3407,4.3408,4.3434,4.3735,4.3758,4.3783,4.3564,4.3568,4.3571,4.3729,0,4.2825,4.2985,4.2987,4.3133,4.3208,4.3181,4.326,4.3307,4.3325,4.3391,4.3411,4.3487,4.344,4.3465,4.3527,4.355,4.3639,4.354,4.3633,4.3636,4.3615,4.381,4.3836,4.3982,4.3749,4.3753,4.3755,0,4.303,4.309,4.3244,4.3294,4.3325,4.3397,4.3465,4.353,4.3582,4.359,4.3638,4.3627,4.3719,4.3652,4.3778,4.3711,4.3749,4.3767,4.3772,4.3778,4.3701,4.3818,4.4029,4.405,4.3788,4.3785,4.3783,0,4.3155,4.3277,4.3383,4.3413,4.3475,4.3525,4.3553,4.3601,4.3646,4.3706,4.3734,4.3806,4.3844,4.3899,4.3906,4.3857,4.4033,4.3966,4.4041,4.4041,4.4077,4.4074,4.4293,4.4108,4.4108,4.4107,4.4107,0,4.3329,4.3423,4.344,4.3506,4.361,4.3612,4.3716,4.374,4.3783,4.3852,4.3834,4.3899,4.3907,4.3974,4.3982,4.4084,4.4103,4.4111,4.4111,4.411,4.4109,4.4133,4.4122,4.4113,4.4112,4.4111,4.411,0,4.3486,4.3501,4.3615,4.3664,4.3679,4.3753,4.3795,4.3857,4.3874,4.3961,4.3982,4.4008,4.4086,4.41,4.4193,4.4197,4.4319,4.4311,4.4301,4.4298,4.4371,4.4363,4.4611,4.4642,4.444,4.4442,4.4443,0,4.3594,4.3665,4.3722,4.3766,4.3796,4.3869,4.3914,4.392,4.3967,4.4031,4.4086,4.4162,4.4223,4.435,4.4376,4.4447,4.4438,4.452,4.4448,4.4445,4.4435,4.4429,4.4435,4.4533,4.4535,4.4537,4.4538,0,4.3782,4.3786,4.3852,4.392,4.3974,4.4029,4.408,4.4118,4.4129,4.4184,4.4263,4.4311,4.4405,4.448,4.455,4.4579,4.456,4.4561,4.4581,4.458,4.4569,4.4572,4.4334,4.4554,4.4553,4.4552,4.4551,4.455,4.3916,4.3977,4.4026,4.4099,4.4138,4.4186,4.4246,4.427,4.4336,4.4412,4.4412,4.4498,4.4547,4.4639,4.4673,4.474,4.4714,4.4744,4.4751,4.4758,4.4763,4.4562,4.4754,4.4753,4.4753,4.4752,4.4752,0,4.41,4.413,4.4198,4.4269,4.4327,4.4305,4.436,4.4409,4.4485,4.4533,4.4593,4.4684,4.4757,4.4789,4.4861,4.4908,4.4901,4.4927,4.4921,4.4928,4.4784,4.4758,4.4931,4.4931,4.4931,4.4931,4.4931,4.4931,4.4203,4.4304,4.4314,4.4435,4.4464,4.4548,4.4581,4.4625,4.4663,4.4764,4.4824,4.4845,4.4887,4.4961,4.5027,4.5034,4.506,4.5089,4.5092,4.4957,4.4938,4.4921,4.4896,4.5095,4.5095,4.5229,4.5231,4.5232]},{"header":{"parameterUnit":"m.s-1","parameterCategory":1,"la1":30.2991,"la2":30.254,"lo1":-89.0895,"lo2":-89.0444,"dy":0.0017,"dx":0.0017,"nx":28,"ny":28,"refTime":"2025-07-13T21:00:00:Z","depth":0,"parameterNumber":3,"parameterNumberName":"V-component_of_WINDS"},"data":[0,0,0,0,0,0,0,0,0,0,0,0,0,0,0,0,0,0,0,0,0,0,0,0,0,0,0,0,0,0,0,0,0,0,0,0,0,0,0,0,0,0,0,0,0,0,0,0,0,0,0,0,0,0,0,0,0,0,2.3126,2.3126,0,2.3178,2.3179,2.3179,2.3189,2.3189,2.3189,2.3188,2.3238,2.3239,2.3241,0,0,0,0,0,0,0,0,0,0,0,0,0,2.3029,2.3031,2.3125,2.3126,2.3127,2.3178,2.3179,2.3179,2.3189,2.3189,2.3188,2.3188,2.3237,2.3239,2.3241,0,0,0,0,0,0,0,0,0,0,0,0,0,2.3075,2.3031,2.3125,2.3138,2.314,2.3178,2.3179,2.3179,2.3189,2.3189,2.3188,2.3188,2.3237,2.3239,2.3242,2.3269,0,0,2.3249,2.325,0,0,0,0,0,0,0,0,2.3072,2.3079,2.3136,2.3137,2.3139,2.3177,2.3163,2.3209,2.319,2.317,2.3188,2.3187,2.3218,2.3222,2.3233,2.3272,2.3274,2.325,2.3251,2.3252,2.3253,0,0,0,0,0,0,0,2.3069,2.3076,2.3146,2.3136,2.3139,2.314,2.3145,2.3172,2.3197,2.3172,2.3173,2.3179,2.3219,2.323,2.3234,2.3275,2.325,2.3252,2.3253,2.3254,2.3337,2.3338,0,0,0,0,0,0,2.3064,2.3074,2.3144,2.3148,2.3104,2.3142,2.3148,2.3165,2.3196,2.3201,2.318,2.318,2.3226,2.3231,2.3236,2.3269,2.3252,2.3255,2.3256,2.3336,2.3337,2.3338,0,0,0,0,0,0,2.3062,2.3071,2.3142,2.3111,2.312,2.3144,2.3163,2.3166,2.3178,2.3202,2.3206,2.3188,2.3226,2.3232,2.3261,2.3271,2.3256,2.3258,2.3335,2.3336,2.3337,2.3337,0,0,0,0,0,0,2.306,2.307,2.3082,2.3111,2.3122,2.3168,2.3164,2.3168,2.3183,2.3183,2.3211,2.3215,2.3226,2.3257,2.3263,2.3274,2.326,2.3335,2.3336,2.3337,2.3336,2.3338,2.3339,0,0,0,0,0,2.3056,2.3079,2.3083,2.3091,2.3138,2.3169,2.3175,2.3188,2.3184,2.3195,2.321,2.3214,2.3269,2.326,2.3267,2.3279,2.3334,2.3336,2.3337,2.3336,2.3338,2.3339,0,0,0,0,0,0,2.305,2.3083,2.3087,2.3121,2.3142,2.317,2.3185,2.319,2.3212,2.3211,2.3226,2.3232,2.3259,2.3272,2.3261,2.3307,2.3301,2.3304,2.3297,2.33,2.3301,2.3297,2.3262,0,0,0,0,0,2.3052,2.3076,2.3104,2.3131,2.3141,2.3161,2.3175,2.3184,2.3206,2.3214,2.3232,2.3251,2.3273,2.3287,2.3309,2.3338,2.3343,2.335,2.3351,2.3353,2.3355,2.337,2.3372,2.3343,2.3343,2.3343,0,0,2.3058,2.3079,2.3093,2.313,2.3147,2.317,2.3169,2.3193,2.3209,2.3218,2.3246,2.3259,2.3282,2.3311,2.3324,2.3322,2.3364,2.3354,2.3355,2.3357,2.3371,2.3374,2.3377,2.3344,2.3343,2.3343,0,0,2.3079,2.3098,2.3122,2.314,2.3166,2.3179,2.3185,2.3212,2.3222,2.325,2.3257,2.3275,2.3313,2.3329,2.3342,2.3367,2.337,2.3374,2.3382,2.3396,2.3398,2.3401,2.3409,2.3411,2.3376,2.3376,2.3376,0,2.3082,2.3118,2.3133,2.3158,2.3173,2.3182,2.3205,2.3221,2.3252,2.3262,2.3259,2.3306,2.3322,2.3354,2.336,2.3371,2.3376,2.3371,2.3397,2.3399,2.3402,2.3409,2.3412,2.3376,2.3376,2.3376,2.3376,0,2.3119,2.3144,2.316,2.3191,2.3208,2.3232,2.3249,2.3264,2.3271,2.3284,2.3312,2.3331,2.3356,2.3365,2.3371,2.3397,2.3395,2.3394,2.3389,2.3404,2.3412,2.3415,2.3376,2.3376,2.3376,2.3376,0,0,2.3138,2.3178,2.3183,2.3197,2.3226,2.3245,2.3267,2.3293,2.3305,2.3326,2.3344,2.3375,2.3375,2.3389,2.3398,2.3411,2.3428,2.3409,2.3409,2.3411,2.3456,2.3455,2.3459,2.3431,2.3431,2.3432,2.3454,0,2.3162,2.3206,2.322,2.3255,2.3276,2.3285,2.3305,2.3324,2.3336,2.3355,2.3368,2.3389,2.3388,2.3397,2.341,2.3423,2.3437,2.3422,2.3446,2.3447,2.344,2.3463,2.3463,2.3483,2.3457,2.3457,2.3458,0,2.3197,2.3219,2.3257,2.3282,2.3292,2.3309,2.3333,2.3352,2.3373,2.338,2.3396,2.3404,2.3426,2.3419,2.3449,2.3439,2.3449,2.3457,2.3458,2.346,2.3453,2.3465,2.349,2.3492,2.3463,2.3462,2.3462,0,2.3205,2.3245,2.3272,2.3284,2.3314,2.3326,2.3339,2.336,2.3374,2.3394,2.3403,2.3425,2.3437,2.3453,2.3465,2.3459,2.3493,2.3488,2.3499,2.3498,2.3505,2.3505,2.3531,2.3513,2.3513,2.3513,2.3513,0,2.323,2.3253,2.3276,2.3293,2.3317,2.3333,2.3356,2.3369,2.3387,2.3405,2.3413,2.343,2.3445,2.3463,2.3473,2.3495,2.3501,2.3506,2.3508,2.3505,2.3504,2.3512,2.3511,2.3514,2.3514,2.3514,2.3514,0,2.3244,2.3261,2.3291,2.3318,2.3325,2.3342,2.3364,2.3379,2.3391,2.3414,2.342,2.3439,2.346,2.3474,2.3501,2.3507,2.3532,2.3534,2.3525,2.3526,2.3536,2.3534,2.3567,2.3572,2.3552,2.3552,2.3552,0,2.3259,2.3277,2.3305,2.3318,2.3332,2.3353,2.3367,2.3382,2.3396,2.3421,2.3433,2.3455,2.3474,2.3507,2.3522,2.3542,2.3544,2.3554,2.3547,2.3543,2.3543,2.3542,2.3543,2.3555,2.3556,2.3556,2.3556,0,2.3283,2.329,2.3311,2.3335,2.3352,2.3371,2.339,2.34,2.3418,2.3433,2.3456,2.347,2.3498,2.3519,2.3541,2.3552,2.3556,2.3558,2.3561,2.3558,2.3552,2.3554,2.3527,2.3557,2.3557,2.3557,2.3557,2.3557,2.3297,2.3312,2.3335,2.3357,2.3373,2.3391,2.3406,2.3421,2.344,2.3465,2.3472,2.3495,2.3514,2.3543,2.3555,2.3572,2.3571,2.3576,2.3577,2.3578,2.3577,2.355,2.3576,2.3576,2.3576,2.3576,2.3576,0,2.332,2.3335,2.3356,2.3383,2.34,2.3404,2.3425,2.3438,2.3459,2.3477,2.3495,2.352,2.354,2.3557,2.3577,2.3588,2.359,2.3592,2.3591,2.3594,2.3578,2.3573,2.359,2.359,2.359,2.359,2.359,2.359,2.3334,2.336,2.337,2.3403,2.3417,2.3441,2.3452,2.3468,2.3482,2.351,2.3527,2.3538,2.3555,2.3577,2.3595,2.3599,2.3606,2.3607,2.3612,2.3597,2.3595,2.3593,2.3588,2.3609,2.3609,2.3626,2.3626,2.3626]}]]